| time (UTC) | temp F | wind direction | speed MPH | gust MPH | rain 1hr in | rain 24hr in | rain mn in | humidity % | barometer mb |
| 20260901093029 | 65 | 235 | 2.0 | 7.0 | 0.00 | 0.00 | 0.00 | 53 | 1002.4 |
| 20260901091530 | 65 | 227 | 0.0 | 5.0 | 0.00 | 0.00 | 0.00 | 51 | 1002.4 |
| 20260901090107 | 66 | 91 | 1.0 | 4.0 | 0.00 | 0.00 | 0.00 | 49 | 1002.5 |
| 20260901084607 | 66 | 246 | 0.0 | 4.0 | 0.00 | 0.00 | 0.00 | 48 | 1002.5 |
| 20260901083030 | 65 | 32 | 0.0 | 2.0 | 0.00 | 0.00 | 0.00 | 46 | 1002.7 |
| 20260901081531 | 65 | 22 | 0.0 | 2.0 | 0.00 | 0.00 | 0.00 | 46 | 1002.7 |
| 20260901080107 | 65 | 56 | 0.0 | 4.0 | 0.00 | 0.00 | 0.00 | 47 | 1002.6 |
| 20260901074543 | 65 | 112 | 2.0 | 3.0 | 0.00 | 0.00 | 0.00 | 46 | 1002.6 |
| 20260901073028 | 65 | 112 | 0.0 | 3.0 | 0.00 | 0.00 | 0.00 | 46 | 1002.5 |
| 20260901071606 | 65 | 112 | 0.0 | 2.0 | 0.00 | 0.00 | 0.00 | 46 | 1002.5 |
| 20260901070104 | 66 | 112 | 0.0 | 1.0 | 0.00 | 0.00 | 0.00 | 44 | 1002.5 |
| 20260901064531 | 67 | 112 | 0.0 | 1.0 | 0.00 | 0.00 | 0.00 | 42 | 1002.5 |
| 20260901063030 | 67 | 112 | 0.0 | 1.0 | 0.00 | 0.00 | 0.00 | 42 | 1002.6 |
| 20260901061531 | 67 | 112 | 0.0 | 1.0 | 0.00 | 0.00 | 0.00 | 41 | 1002.6 |
| 20260901060109 | 67 | 112 | 0.0 | 2.0 | 0.00 | 0.00 | 0.00 | 42 | 1002.6 |
| 20260901051538 | 69 | 145 | 0.0 | 2.0 | 0.00 | 0.00 | 0.00 | 41 | 1002.7 |
| 20260901050112 | 70 | 157 | 0.0 | 2.0 | 0.00 | 0.00 | 0.00 | 42 | 1002.6 |
| 20260901044531 | 70 | 157 | 0.0 | 0.0 | 0.00 | 0.00 | 0.00 | 42 | 1002.6 |
| 20260901043146 | 71 | 157 | 0.0 | 0.0 | 0.00 | 0.00 | 0.00 | 40 | 1002.5 |
| 20260901041530 | 72 | 175 | 1.0 | 2.0 | 0.00 | 0.00 | 0.00 | 36 | 1002.4 |
| 20260901040030 | 74 | 157 | 0.0 | 2.0 | 0.00 | 0.00 | 0.00 | 34 | 1002.2 |
| 20260901034530 | 74 | 157 | 2.0 | 4.0 | 0.00 | 0.00 | 0.00 | 33 | 1002.0 |
| 20260901033033 | 74 | 199 | 1.0 | 3.0 | 0.00 | 0.00 | 0.00 | 36 | 1001.8 |
| 20260901031530 | 77 | 221 | 1.0 | 4.0 | 0.00 | 0.00 | 0.00 | 31 | 1001.7 |
| 20260901024532 | 78 | 114 | 3.0 | 5.0 | 0.00 | 0.00 | 0.00 | 29 | 1001.4 |
| 20260901023030 | 78 | 112 | 3.0 | 4.0 | 0.00 | 0.00 | 0.00 | 30 | 1001.3 |
| 20260901021530 | 79 | 107 | 1.0 | 4.0 | 0.00 | 0.00 | 0.00 | 31 | 1001.3 |
| 20260901020031 | 81 | 71 | 1.0 | 3.0 | 0.00 | 0.00 | 0.00 | 30 | 1001.3 |
| 20260901014529 | 84 | 87 | 1.0 | 5.0 | 0.00 | 0.00 | 0.00 | 25 | 1001.2 |
| 20260901013028 | 85 | 87 | 0.0 | 5.0 | 0.00 | 0.00 | 0.00 | 25 | 1001.3 |
| 20260901011529 | 85 | 112 | 1.0 | 4.0 | 0.00 | 0.00 | 0.00 | 25 | 1001.3 |
| 20260901004533 | 88 | 340 | 1.0 | 9.0 | 0.00 | 0.00 | 0.00 | 23 | 1001.6 |
| 20260901003033 | 88 | 14 | 2.0 | 7.0 | 0.00 | 0.00 | 0.00 | 23 | 1001.7 |
| 20260901001529 | 88 | 350 | 2.0 | 7.0 | 0.00 | 0.00 | 0.00 | 23 | 1001.9 |
| 20260901000031 | 88 | 16 | 1.0 | 7.0 | 0.00 | 0.00 | 0.00 | 23 | 1002.1 |
| 20260831234604 | 88 | 331 | 1.0 | 5.0 | 0.00 | 0.00 | 0.00 | 23 | 1002.2 |
| 20260831233031 | 88 | 29 | 2.0 | 7.0 | 0.00 | 0.00 | 0.00 | 22 | 1002.4 |
| 20260831231530 | 87 | 67 | 2.0 | 8.0 | 0.00 | 0.00 | 0.00 | 24 | 1002.6 |
| 20260831230033 | 87 | 2 | 3.0 | 8.0 | 0.00 | 0.00 | 0.00 | 24 | 1002.9 |
| 20260831224604 | 87 | 343 | 3.0 | 8.0 | 0.00 | 0.00 | 0.00 | 24 | 1003.2 |
| 20260831221531 | 87 | 326 | 3.0 | 8.0 | 0.00 | 0.00 | 0.00 | 24 | 1003.6 |
| 20260831220030 | 86 | 31 | 3.0 | 11.0 | 0.00 | 0.00 | 0.00 | 23 | 1003.8 |
| 20260831214531 | 87 | 177 | 0.0 | 5.0 | 0.00 | 0.00 | 0.00 | 24 | 1004.2 |
| 20260831211532 | 86 | 274 | 1.0 | 6.0 | 0.00 | 0.00 | 0.00 | 27 | 1004.6 |
| 20260831210103 | 86 | 297 | 2.0 | 6.0 | 0.00 | 0.00 | 0.00 | 28 | 1005.0 |
| 20260831204606 | 85 | 267 | 2.0 | 6.0 | 0.00 | 0.00 | 0.00 | 30 | 1005.2 |
| 20260831200031 | 82 | 271 | 3.0 | 6.0 | 0.00 | 0.00 | 0.00 | 35 | 1006.3 |
| 20260831194606 | 81 | 312 | 3.0 | 6.0 | 0.00 | 0.00 | 0.00 | 36 | 1006.5 |
| 20260831193029 | 80 | 315 | 1.0 | 5.0 | 0.00 | 0.00 | 0.00 | 36 | 1006.9 |
| 20260831191530 | 79 | 308 | 2.0 | 5.0 | 0.00 | 0.00 | 0.00 | 38 | 1007.3 |
| 20260831190033 | 78 | 309 | 2.0 | 5.0 | 0.00 | 0.00 | 0.00 | 39 | 1007.7 |
| 20260831184530 | 77 | 314 | 2.0 | 5.0 | 0.00 | 0.00 | 0.00 | 39 | 1007.9 |
| 20260831183105 | 76 | 313 | 1.0 | 5.0 | 0.00 | 0.00 | 0.00 | 41 | 1008.2 |
| 20260831181532 | 75 | 318 | 2.0 | 5.0 | 0.00 | 0.00 | 0.00 | 45 | 1008.5 |
| 20260831180029 | 73 | 313 | 2.0 | 5.0 | 0.00 | 0.00 | 0.00 | 48 | 1008.7 |
| 20260831174531 | 72 | 308 | 2.0 | 5.0 | 0.00 | 0.00 | 0.00 | 49 | 1008.9 |
| 20260831173031 | 70 | 309 | 0.0 | 4.0 | 0.00 | 0.00 | 0.00 | 50 | 1009.1 |
| 20260831171644 | 69 | 269 | 1.0 | 3.0 | 0.00 | 0.00 | 0.00 | 52 | 1009.2 |
| 20260831170144 | 68 | 357 | 0.0 | 4.0 | 0.00 | 0.00 | 0.00 | 52 | 1009.4 |
| 20260831164603 | 68 | 339 | 1.0 | 3.0 | 0.00 | 0.00 | 0.00 | 54 | 1009.6 |
| 20260831163031 | 66 | 314 | 1.0 | 3.0 | 0.00 | 0.00 | 0.00 | 57 | 1009.7 |
| 20260831161531 | 64 | 322 | 0.0 | 3.0 | 0.00 | 0.00 | 0.00 | 60 | 1009.9 |
| 20260831154531 | 61 | 3 | 2.0 | 5.0 | 0.00 | 0.00 | 0.00 | 63 | 1010.0 |
| 20260831153032 | 61 | 2 | 2.0 | 5.0 | 0.00 | 0.00 | 0.00 | 66 | 1010.0 |
| 20260831151604 | 58 | 330 | 0.0 | 3.0 | 0.00 | 0.00 | 0.00 | 70 | 1010.0 |
| 20260831150029 | 55 | 205 | 0.0 | 0.0 | 0.00 | 0.00 | 0.00 | 76 | 1009.8 |
| 20260831144532 | 53 | 202 | 0.0 | 0.0 | 0.00 | 0.00 | 0.00 | 77 | 1009.7 |
| 20260831143029 | 53 | 202 | 0.0 | 1.0 | 0.00 | 0.00 | 0.00 | 77 | 1009.6 |
| 20260831141607 | 52 | 131 | 0.0 | 2.0 | 0.00 | 0.00 | 0.00 | 75 | 1009.5 |
| 20260831140031 | 52 | 112 | 0.0 | 2.0 | 0.00 | 0.00 | 0.00 | 73 | 1009.5 |
| 20260831134532 | 52 | 112 | 0.0 | 2.0 | 0.00 | 0.00 | 0.00 | 74 | 1009.5 |
| 20260831133038 | 53 | 112 | 0.0 | 1.0 | 0.00 | 0.00 | 0.00 | 70 | 1009.4 |
| 20260831130035 | 54 | 112 | 1.0 | 4.0 | 0.00 | 0.00 | 0.00 | 66 | 1009.4 |
| 20260831124531 | 55 | 112 | 3.0 | 6.0 | 0.00 | 0.00 | 0.00 | 65 | 1009.3 |
| 20260831123031 | 55 | 112 | 4.0 | 6.0 | 0.00 | 0.00 | 0.00 | 65 | 1009.3 |
| 20260831120029 | 56 | 112 | 3.0 | 5.0 | 0.00 | 0.00 | 0.00 | 64 | 1009.2 |
| 20260831113031 | 56 | 110 | 3.0 | 5.0 | 0.00 | 0.00 | 0.00 | 69 | 1009.2 |
| 20260831111531 | 57 | 112 | 3.0 | 4.0 | 0.00 | 0.00 | 0.00 | 70 | 1009.2 |
| 20260831110030 | 57 | 112 | 4.0 | 6.0 | 0.00 | 0.00 | 0.00 | 70 | 1009.1 |
| 20260831104537 | 57 | 112 | 3.0 | 6.0 | 0.00 | 0.00 | 0.00 | 71 | 1009.2 |
| 20260831101530 | 58 | 112 | 0.0 | 1.0 | 0.00 | 0.00 | 0.00 | 69 | 1009.2 |
| 20260831100106 | 59 | 112 | 2.0 | 5.0 | 0.00 | 0.00 | 0.00 | 67 | 1009.3 |
| 20260831094532 | 59 | 112 | 4.0 | 5.0 | 0.00 | 0.00 | 0.00 | 66 | 1009.4 |